QPF
0.00 0.00 0.00 0.00 0.00 0.00 0.00 0.00 0.00 0.00 0.00 0.00 0.00 0.00 0.00 0.00 0.00 0.00 0.00 0.00 0.00 0.00 0.00 0.00 0.00 0.00 0.00 0.00 0.00 0.00 0.00 0.00 0.00 0.00 0.00 0.00 0.00 0.00 0.00 0.00 0.00 0.00 0.00
0.00 0.00 0.00 0.00 0.00 0.00 0.00 0.00 0.00 0.00 0.00 0.00 0.00 0.00 0.00 0.00 0.00 0.00 0.00 0.00 0.00 0.00 0.00 0.00 0.00 0.00 0.00 0.00 0.00 0.00 0.00 0.00 0.00 0.00 0.00 0.00 0.00 0.00 0.00 0.00 0.00 0.00 0.00
0.00 0.00 0.00 0.00 0.00 0.00 0.00 0.00 0.00 0.00 0.00 0.00 0.00 0.00 0.00 0.00 0.00 0.00 0.00 0.00 0.00 0.00 0.00 0.00 0.00 0.00 0.00 0.00 0.00 0.00 0.00 0.00 0.00 0.00 0.00 0.00 0.00 0.00 0.00 0.00 0.00 0.00 0.00
0.00 0.00 0.00 0.00 0.00 0.00 0.00 0.00 0.00 0.00 0.00 0.00 0.00 0.00 0.00 0.00 0.00 0.00 0.00 0.00 0.00 0.00 0.00 0.00 0.00 0.00 0.00 0.00 0.00 0.00 0.00 0.00 0.00 0.00 0.00 0.00 0.00 0.00 0.00 0.00 0.00 0.00 0.00
0.00 0.00 0.00 0.00 0.00 0.00 0.00 0.00 0.00 0.00 0.00 0.00 0.00 0.00 0.00 0.00 0.00 0.00 0.00 0.00 0.00 0.00 0.00 0.00 0.00 0.00 0.00 0.00 0.00 0.00 0.00 0.00 0.00 0.00 0.00 0.00 0.00 0.00 0.00 0.00 0.00 0.00 0.00
0.00 0.00 0.00 0.00 0.00 0.00 0.00 0.00 0.00 0.00 0.00 0.00 0.00 0.00 0.00 0.00 0.00 0.00 0.00 0.00 0.00 0.00 0.00 0.00 0.00 0.00 0.00 0.00 0.00 0.00 0.00 0.00 0.00 0.00 0.00 0.00 0.00 0.00 0.00 0.00 0.00 0.00 0.00
0.01 0.00 0.00 0.00 0.00 0.00 0.00 0.00 0.00 0.00 0.00 0.00 0.00 0.00 0.00 0.00 0.00 0.00 0.00 0.00 0.00 0.00 0.00 0.00 0.00 0.00 0.00 0.00 0.00 0.00 0.00 0.00 0.00 0.00 0.00 0.00 0.00 0.00 0.00 0.00 0.00 0.00 0.00
0.01 0.01 0.01 0.01 0.00 0.00 0.00 0.00 0.00 0.00 0.00 0.00 0.00 0.00 0.00 0.00 0.00 0.00 0.00 0.00 0.00 0.00 0.00 0.00 0.00 0.00 0.00 0.00 0.00 0.00 0.00 0.00 0.00 0.00 0.00 0.00 0.00 0.00 0.00 0.00 0.00 0.00 0.00
0.01 0.01 0.02 0.01 0.01 0.01 0.00 0.00 0.00 0.00 0.00 0.00 0.00 0.00 0.00 0.00 0.00 0.00 0.00 0.00 0.00 0.00 0.00 0.00 0.00 0.00 0.00 0.00 0.00 0.00 0.00 0.00 0.00 0.00 0.00 0.00 0.00 0.00 0.00 0.00 0.00 0.00 0.00
0.03 0.03 0.03 0.02 0.02 0.01 0.01 0.01 0.01 0.01 0.01 0.01 0.01 0.01 0.01 0.01 0.01 0.01 0.01 0.01 0.00 0.00 0.00 0.00 0.00 0.00 0.00 0.00 0.00 0.00 0.00 0.00 0.00 0.00 0.00 0.00 0.00 0.00 0.00 0.00 0.00 0.00 0.00
0.05 0.05 0.04 0.04 0.03 0.03 0.03 0.03 0.03 0.02 0.02 0.03 0.03 0.03 0.02 0.02 0.01 0.01 0.01 0.01 0.00 0.00 0.00 0.00 0.00 0.00 0.00 0.00 0.00 0.00 0.00 0.00 0.00 0.00 0.00 0.00 0.00 0.00 0.00 0.00 0.00 0.00 0.00
0.05 0.06 0.06 0.06 0.06 0.05 0.05 0.04 0.04 0.04 0.03 0.03 0.02 0.02 0.01 0.01 0.01 0.01 0.01 0.01 0.01 0.00 0.00 0.00 0.00 0.00 0.00 0.00 0.00 0.00 0.00 0.00 0.00 0.00 0.00 0.00 0.00 0.00 0.00 0.00 0.00 0.00 0.00
0.04 0.05 0.05 0.05 0.05 0.04 0.03 0.03 0.02 0.02 0.01 0.01 0.01 0.01 0.01 0.01 0.01 0.01 0.01 0.01 0.02 0.02 0.01 0.01 0.01 0.01 0.01 0.01 0.00 0.00 0.00 0.00 0.00 0.00 0.00 0.00 0.00 0.00 0.00 0.00 0.00 0.00 0.00
0.03 0.03 0.04 0.03 0.03 0.03 0.02 0.02 0.01 0.02 0.01 0.01 0.01 0.01 0.01 0.01 0.01 0.01 0.01 0.02 0.02 0.02 0.01 0.01 0.01 0.01 0.01 0.01 0.01 0.01 0.00 0.00 0.00 0.00 0.00 0.00 0.00 0.00 0.00 0.00 0.00 0.00 0.00
0.01 0.02 0.02 0.02 0.02 0.02 0.02 0.01 0.01 0.01 0.01 0.01 0.01 0.01 0.01 0.01 0.01 0.02 0.02 0.01 0.02 0.02 0.02 0.02 0.01 0.01 0.01 0.01 0.01 0.01 0.01 0.01 0.00 0.00 0.00 0.00 0.00 0.00 0.00 0.00 0.00 0.00 0.00
0.01 0.01 0.01 0.01 0.01 0.01 0.01 0.01 0.01 0.01 0.01 0.00 0.00 0.01 0.01 0.01 0.01 0.01 0.02 0.02 0.02 0.02 0.02 0.01 0.01 0.02 0.02 0.01 0.01 0.01 0.01 0.01 0.01 0.00 0.00 0.00 0.00 0.00 0.00 0.00 0.00 0.00 0.00
0.00 0.00 0.00 0.00 0.00 0.00 0.00 0.00 0.00 0.00 0.00 0.00 0.00 0.00 0.01 0.01 0.01 0.02 0.02 0.02 0.02 0.02 0.02 0.02 0.02 0.02 0.02 0.02 0.02 0.01 0.01 0.01 0.01 0.00 0.00 0.00 0.00 0.00 0.00 0.00 0.00 0.00 0.00
0.00 0.00 0.00 0.00 0.00 0.00 0.00 0.00 0.00 0.00 0.00 0.00 0.00 0.01 0.01 0.01 0.01 0.01 0.02 0.02 0.02 0.03 0.03 0.03 0.03 0.03 0.03 0.03 0.02 0.02 0.01 0.01 0.01 0.01 0.00 0.00 0.00 0.00 0.00 0.00 0.00 0.00 0.00
0.00 0.00 0.00 0.00 0.00 0.00 0.00 0.00 0.00 0.00 0.00 0.00 0.00 0.01 0.01 0.01 0.01 0.01 0.02 0.02 0.03 0.03 0.03 0.04 0.04 0.04 0.04 0.03 0.02 0.02 0.02 0.02 0.01 0.01 0.00 0.00 0.00 0.00 0.00 0.00 0.00 0.01 0.01
0.00 0.00 0.00 0.00 0.00 0.00 0.00 0.00 0.00 0.00 0.00 0.00 0.00 0.01 0.01 0.01 0.01 0.01 0.02 0.03 0.03 0.04 0.04 0.05 0.06 0.06 0.06 0.05 0.04 0.03 0.02 0.02 0.01 0.01 0.01 0.01 0.01 0.01 0.01 0.01 0.01 0.01 0.01
0.00 0.00 0.00 0.00 0.00 0.00 0.00 0.00 0.00 0.00 0.00 0.00 0.00 0.01 0.02 0.02 0.02 0.03 0.03 0.04 0.04 0.05 0.06 0.06 0.05 0.05 0.04 0.04 0.03 0.03 0.02 0.02 0.02 0.02 0.01 0.01 0.01 0.01 0.01 0.01 0.01 0.02 0.02
0.00 0.00 0.00 0.00 0.00 0.00 0.00 0.00 0.00 0.00 0.00 0.01 0.01 0.01 0.02 0.03 0.04 0.06 0.07 0.08 0.09 0.11 0.11 0.09 0.08 0.06 0.05 0.05 0.03 0.03 0.03 0.03 0.03 0.03 0.02 0.02 0.01 0.01 0.01 0.01 0.02 0.02 0.03
0.00 0.00 0.00 0.00 0.00 0.00 0.00 0.00 0.00 0.00 0.01 0.01 0.01 0.02 0.03 0.05 0.06 0.08 0.11 0.13 0.14 0.14 0.12 0.10 0.08 0.07 0.06 0.06 0.05 0.04 0.03 0.02 0.02 0.03 0.03 0.02 0.02 0.02 0.02 0.02 0.01 0.01 0.02
0.00 0.00 0.00 0.00 0.00 0.00 0.00 0.00 0.01 0.01 0.02 0.03 0.04 0.05 0.08 0.10 0.10 0.13 0.15 0.15 0.17 0.18 0.15 0.10 0.08 0.05 0.04 0.04 0.03 0.03 0.02 0.02 0.02 0.02 0.02 0.02 0.02 0.02 0.02 0.02 0.02 0.02 0.02
0.00 0.00 0.00 0.00 0.00 0.00 0.01 0.01 0.02 0.02 0.04 0.06 0.08 0.09 0.11 0.10 0.12 0.15 0.15 0.14 0.15 0.15 0.13 0.10 0.09 0.08 0.06 0.03 0.02 0.01 0.02 0.02 0.01 0.01 0.01 0.02 0.02 0.02 0.02 0.03 0.03 0.03 0.03
0.00 0.00 0.00 0.00 0.01 0.01 0.02 0.03 0.03 0.04 0.05 0.07 0.10 0.10 0.11 0.11 0.12 0.13 0.13 0.15 0.15 0.14 0.12 0.10 0.08 0.07 0.05 0.03 0.02 0.02 0.02 0.01 0.01 0.01 0.01 0.01 0.02 0.02 0.02 0.02 0.03 0.04 0.04
MSLP
1014.87 1015.33 1015.82 1016.29 1016.72 1017.07 1017.34 1017.54 1017.70 1017.82 1017.93 1018.05 1018.18 1018.32 1018.45 1018.57 1018.68 1018.76 1018.83 1018.90 1018.96 1019.03 1019.11 1019.21 1019.31 1019.42 1019.50 1019.57 1019.60 1019.60 1019.55 1019.46 1019.33 1019.15 1018.93 1018.68 1018.41 1018.12 1017.83 1017.55 1017.30 1017.08 1016.91
1014.47 1014.92 1015.40 1015.87 1016.29 1016.64 1016.92 1017.14 1017.30 1017.44 1017.56 1017.69 1017.81 1017.94 1018.06 1018.17 1018.27 1018.35 1018.42 1018.48 1018.54 1018.61 1018.68 1018.76 1018.84 1018.92 1018.99 1019.04 1019.06 1019.06 1019.03 1018.96 1018.86 1018.74 1018.57 1018.37 1018.14 1017.89 1017.62 1017.35 1017.09 1016.86 1016.66
1013.95 1014.42 1014.90 1015.37 1015.79 1016.15 1016.44 1016.67 1016.85 1017.01 1017.14 1017.27 1017.39 1017.52 1017.63 1017.74 1017.83 1017.90 1017.97 1018.03 1018.09 1018.16 1018.23 1018.30 1018.37 1018.43 1018.48 1018.51 1018.53 1018.52 1018.49 1018.44 1018.37 1018.27 1018.15 1017.99 1017.80 1017.59 1017.35 1017.10 1016.85 1016.60 1016.38
1013.31 1013.80 1014.30 1014.77 1015.20 1015.57 1015.87 1016.12 1016.32 1016.49 1016.65 1016.79 1016.92 1017.05 1017.16 1017.26 1017.35 1017.42 1017.49 1017.55 1017.62 1017.69 1017.76 1017.83 1017.89 1017.95 1017.99 1018.01 1018.01 1017.99 1017.96 1017.91 1017.85 1017.77 1017.67 1017.54 1017.39 1017.21 1017.01 1016.78 1016.55 1016.31 1016.08
1012.57 1013.09 1013.60 1014.08 1014.51 1014.88 1015.20 1015.46 1015.68 1015.88 1016.06 1016.22 1016.37 1016.51 1016.63 1016.73 1016.82 1016.89 1016.96 1017.02 1017.09 1017.17 1017.25 1017.33 1017.40 1017.45 1017.49 1017.50 1017.50 1017.47 1017.42 1017.37 1017.30 1017.22 1017.13 1017.02 1016.90 1016.75 1016.58 1016.40 1016.19 1015.97 1015.74
1011.83 1012.35 1012.86 1013.34 1013.76 1014.13 1014.44 1014.72 1014.96 1015.19 1015.39 1015.58 1015.75 1015.90 1016.03 1016.13 1016.22 1016.29 1016.36 1016.42 1016.50 1016.58 1016.67 1016.76 1016.84 1016.91 1016.95 1016.96 1016.95 1016.91 1016.85 1016.78 1016.70 1016.61 1016.52 1016.43 1016.32 1016.21 1016.08 1015.93 1015.76 1015.57 1015.37
1011.18 1011.69 1012.17 1012.61 1013.01 1013.36 1013.67 1013.95 1014.20 1014.44 1014.67 1014.88 1015.07 1015.23 1015.36 1015.47 1015.55 1015.62 1015.68 1015.74 1015.81 1015.90 1015.99 1016.10 1016.19 1016.27 1016.33 1016.35 1016.34 1016.29 1016.23 1016.14 1016.05 1015.95 1015.85 1015.76 1015.67 1015.58 1015.48 1015.37 1015.24 1015.10 1014.93
1010.75 1011.20 1011.62 1012.01 1012.35 1012.66 1012.94 1013.21 1013.46 1013.70 1013.94 1014.16 1014.36 1014.53 1014.66 1014.76 1014.83 1014.88 1014.92 1014.97 1015.03 1015.11 1015.20 1015.31 1015.42 1015.52 1015.59 1015.62 1015.63 1015.59 1015.52 1015.44 1015.33 1015.23 1015.12 1015.03 1014.95 1014.87 1014.80 1014.73 1014.64 1014.54 1014.42
1010.61 1010.97 1011.30 1011.61 1011.88 1012.13 1012.36 1012.58 1012.81 1013.04 1013.27 1013.48 1013.67 1013.83 1013.95 1014.03 1014.07 1014.10 1014.11 1014.13 1014.16 1014.22 1014.31 1014.41 1014.52 1014.63 1014.72 1014.78 1014.80 1014.79 1014.74 1014.66 1014.56 1014.46 1014.36 1014.27 1014.19 1014.12 1014.07 1014.02 1013.97 1013.91 1013.83
1010.78 1011.03 1011.26 1011.46 1011.64 1011.80 1011.97 1012.14 1012.32 1012.51 1012.71 1012.90 1013.06 1013.19 1013.28 1013.32 1013.33 1013.31 1013.28 1013.25 1013.25 1013.27 1013.33 1013.41 1013.52 1013.63 1013.74 1013.82 1013.88 1013.89 1013.87 1013.82 1013.75 1013.66 1013.57 1013.49 1013.41 1013.36 1013.32 1013.28 1013.26 1013.22 1013.17
1011.23 1011.35 1011.47 1011.56 1011.64 1011.71 1011.80 1011.90 1012.02 1012.16 1012.30 1012.44 1012.56 1012.64 1012.68 1012.67 1012.63 1012.55 1012.46 1012.38 1012.31 1012.29 1012.30 1012.35 1012.44 1012.54 1012.66 1012.77 1012.85 1012.91 1012.94 1012.93 1012.90 1012.85 1012.78 1012.71 1012.65 1012.60 1012.56 1012.53 1012.51 1012.48 1012.46
1011.84 1011.86 1011.87 1011.86 1011.84 1011.83 1011.83 1011.86 1011.90 1011.97 1012.05 1012.12 1012.18 1012.20 1012.17 1012.10 1011.99 1011.85 1011.69 1011.54 1011.40 1011.31 1011.26 1011.26 1011.31 1011.40 1011.51 1011.63 1011.75 1011.86 1011.94 1011.99 1012.01 1012.01 1011.98 1011.94 1011.89 1011.84 1011.80 1011.76 1011.74 1011.72 1011.69
1012.52 1012.45 1012.37 1012.28 1012.18 1012.09 1012.01 1011.96 1011.93 1011.92 1011.92 1011.92 1011.90 1011.84 1011.75 1011.61 1011.43 1011.21 1010.98 1010.74 1010.53 1010.36 1010.23 1010.17 1010.16 1010.21 1010.31 1010.44 1010.58 1010.73 1010.87 1010.99 1011.08 1011.14 1011.16 1011.16 1011.13 1011.09 1011.04 1010.99 1010.95 1010.92 1010.88
1013.13 1013.01 1012.87 1012.72 1012.56 1012.41 1012.27 1012.14 1012.03 1011.94 1011.86 1011.78 1011.67 1011.54 1011.37 1011.15 1010.90 1010.61 1010.30 1009.98 1009.69 1009.43 1009.23 1009.08 1009.01 1009.01 1009.08 1009.20 1009.36 1009.55 1009.74 1009.92 1010.08 1010.21 1010.29 1010.33 1010.33 1010.30 1010.25 1010.20 1010.14 1010.08 1010.03
1013.61 1013.46 1013.29 1013.10 1012.91 1012.71 1012.51 1012.32 1012.14 1011.97 1011.80 1011.63 1011.44 1011.22 1010.97 1010.68 1010.35 1009.99 1009.61 1009.22 1008.85 1008.51 1008.23 1008.01 1007.87 1007.81 1007.84 1007.94 1008.11 1008.32 1008.55 1008.79 1009.01 1009.20 1009.34 1009.43 1009.46 1009.45 1009.41 1009.34 1009.26 1009.19 1009.13
1013.91 1013.75 1013.57 1013.37 1013.16 1012.92 1012.68 1012.43 1012.18 1011.93 1011.67 1011.40 1011.12 1010.81 1010.48 1010.12 1009.72 1009.30 1008.86 1008.41 1007.97 1007.57 1007.22 1006.93 1006.73 1006.62 1006.60 1006.68 1006.84 1007.06 1007.33 1007.60 1007.87 1008.11 1008.30 1008.43 1008.50 1008.51 1008.47 1008.41 1008.32 1008.24 1008.17
1014.06 1013.91 1013.73 1013.52 1013.29 1013.03 1012.74 1012.44 1012.11 1011.77 1011.41 1011.05 1010.67 1010.27 1009.85 1009.42 1008.96 1008.48 1007.99 1007.50 1007.03 1006.58 1006.18 1005.85 1005.60 1005.45 1005.40 1005.46 1005.61 1005.83 1006.10 1006.40 1006.70 1006.97 1007.19 1007.35 1007.44 1007.47 1007.45 1007.38 1007.30 1007.22 1007.15
1014.11 1013.96 1013.79 1013.58 1013.33 1013.04 1012.70 1012.33 1011.92 1011.48 1011.02 1010.55 1010.06 1009.56 1009.06 1008.55 1008.04 1007.52 1007.00 1006.49 1006.00 1005.53 1005.12 1004.78 1004.51 1004.35 1004.28 1004.32 1004.46 1004.67 1004.95 1005.25 1005.55 1005.83 1006.06 1006.23 1006.33 1006.37 1006.35 1006.29 1006.22 1006.14 1006.08
1014.12 1013.98 1013.81 1013.59 1013.31 1012.97 1012.58 1012.12 1011.62 1011.07 1010.50 1009.91 1009.31 1008.71 1008.12 1007.54 1006.97 1006.42 1005.89 1005.38 1004.90 1004.46 1004.07 1003.75 1003.50 1003.35 1003.29 1003.33 1003.46 1003.66 1003.92 1004.20 1004.49 1004.75 1004.96 1005.12 1005.20 1005.23 1005.21 1005.16 1005.09 1005.03 1004.99
1014.15 1014.01 1013.83 1013.58 1013.27 1012.88 1012.40 1011.86 1011.25 1010.59 1009.90 1009.18 1008.46 1007.76 1007.08 1006.43 1005.82 1005.25 1004.72 1004.23 1003.79 1003.40 1003.07 1002.80 1002.61 1002.49 1002.47 1002.52 1002.66 1002.85 1003.08 1003.33 1003.57 1003.79 1003.96 1004.07 1004.13 1004.13 1004.10 1004.04 1003.98 1003.93 1003.92
1014.24 1014.09 1013.88 1013.60 1013.23 1012.77 1012.22 1011.58 1010.86 1010.09 1009.27 1008.43 1007.60 1006.79 1006.03 1005.32 1004.67 1004.09 1003.57 1003.13 1002.74 1002.43 1002.18 1001.99 1001.88 1001.83 1001.85 1001.94 1002.08 1002.26 1002.46 1002.66 1002.85 1003.00 1003.10 1003.16 1003.16 1003.12 1003.05 1002.98 1002.91 1002.88 1002.89
1014.38 1014.21 1013.97 1013.64 1013.22 1012.69 1012.05 1011.32 1010.50 1009.62 1008.69 1007.75 1006.81 1005.92 1005.08 1004.32 1003.64 1003.06 1002.57 1002.17 1001.86 1001.63 1001.47 1001.38 1001.35 1001.38 1001.46 1001.58 1001.73 1001.89 1002.05 1002.20 1002.31 1002.39 1002.41 1002.39 1002.32 1002.23 1002.12 1002.02 1001.95 1001.92 1001.94
1014.57 1014.37 1014.09 1013.71 1013.23 1012.64 1011.93 1011.12 1010.22 1009.25 1008.24 1007.21 1006.20 1005.24 1004.35 1003.55 1002.86 1002.28 1001.82 1001.47 1001.22 1001.07 1001.00 1000.99 1001.05 1001.14 1001.27 1001.42 1001.57 1001.71 1001.83 1001.91 1001.94 1001.93 1001.87 1001.76 1001.62 1001.47 1001.32 1001.20 1001.11 1001.07 1001.10
1014.76 1014.53 1014.21 1013.79 1013.26 1012.61 1011.85 1010.99 1010.04 1009.02 1007.96 1006.88 1005.83 1004.84 1003.92 1003.11 1002.42 1001.85 1001.41 1001.10 1000.90 1000.80 1000.79 1000.85 1000.95 1001.09 1001.25 1001.40 1001.54 1001.64 1001.70 1001.71 1001.67 1001.57 1001.42 1001.24 1001.04 1000.84 1000.65 1000.50 1000.40 1000.36 1000.38
1014.94 1014.68 1014.33 1013.87 1013.31 1012.63 1011.84 1010.95 1009.99 1008.95 1007.88 1006.81 1005.76 1004.76 1003.85 1003.04 1002.36 1001.80 1001.38 1001.08 1000.91 1000.84 1000.85 1000.93 1001.05 1001.19 1001.33 1001.46 1001.55 1001.60 1001.59 1001.53 1001.41 1001.23 1001.02 1000.77 1000.52 1000.28 1000.07 999.90 999.79 999.74 999.77
1015.10 1014.81 1014.43 1013.95 1013.36 1012.67 1011.89 1011.01 1010.07 1009.06 1008.03 1006.99 1005.97 1005.01 1004.13 1003.35 1002.68 1002.14 1001.72 1001.42 1001.24 1001.16 1001.15 1001.19 1001.28 1001.37 1001.46 1001.52 1001.54 1001.52 1001.43 1001.29 1001.09 1000.85 1000.58 1000.30 1000.01 999.75 999.53 999.36 999.25 999.21 999.23
Thickness
5724 5721 5719 5716 5713 5710 5706 5704 5700 5697 5694 5692 5689 5686 5682 5680 5676 5673 5670 5667 5664 5661 5658 5655 5652 5650 5646 5644 5640 5637 5635 5632 5632 5633 5632 5632 5633 5635 5636 5638 5640 5642 5645
5727 5722 5719 5716 5712 5708 5705 5702 5699 5695 5693 5690 5686 5683 5680 5677 5674 5670 5667 5665 5661 5658 5655 5652 5649 5646 5642 5639 5636 5633 5630 5628 5626 5627 5626 5625 5625 5625 5626 5627 5629 5632 5634
5727 5722 5718 5714 5711 5707 5704 5701 5697 5693 5690 5687 5683 5680 5678 5675 5671 5668 5665 5662 5658 5655 5652 5649 5646 5642 5638 5635 5631 5628 5626 5624 5620 5619 5619 5617 5616 5616 5616 5617 5619 5620 5623
5727 5722 5717 5714 5711 5707 5703 5699 5695 5691 5688 5684 5681 5678 5675 5672 5669 5665 5661 5658 5655 5652 5649 5646 5642 5638 5635 5632 5628 5624 5621 5617 5614 5612 5611 5610 5608 5607 5606 5607 5609 5610 5612
5724 5720 5717 5714 5709 5704 5700 5696 5692 5688 5685 5682 5678 5675 5672 5669 5666 5662 5659 5655 5651 5648 5645 5642 5639 5636 5633 5629 5625 5621 5616 5612 5609 5606 5605 5603 5601 5599 5598 5599 5600 5600 5602
5722 5719 5716 5711 5705 5701 5697 5693 5688 5685 5681 5678 5675 5672 5669 5666 5664 5660 5656 5652 5648 5645 5642 5639 5636 5632 5629 5626 5622 5618 5613 5608 5605 5601 5600 5597 5596 5593 5591 5590 5589 5590 5592
5719 5716 5711 5707 5702 5699 5694 5689 5685 5681 5677 5674 5671 5668 5666 5664 5660 5656 5653 5649 5645 5642 5638 5635 5632 5630 5625 5621 5618 5614 5610 5606 5602 5598 5596 5593 5590 5588 5585 5583 5581 5582 5584
5712 5709 5706 5701 5697 5693 5688 5685 5681 5677 5673 5670 5668 5665 5662 5660 5656 5652 5648 5644 5642 5638 5635 5631 5628 5625 5621 5616 5612 5609 5606 5602 5598 5595 5592 5590 5586 5583 5579 5578 5576 5575 5576
5705 5702 5699 5695 5691 5687 5682 5680 5677 5672 5670 5667 5665 5662 5659 5657 5653 5648 5642 5639 5636 5635 5631 5627 5623 5620 5617 5611 5606 5603 5600 5598 5594 5591 5588 5585 5581 5577 5573 5569 5568 5567 5571
5695 5692 5690 5687 5683 5679 5676 5673 5670 5667 5665 5662 5659 5657 5654 5653 5650 5644 5637 5633 5631 5630 5627 5623 5619 5616 5613 5606 5600 5597 5595 5594 5590 5586 5582 5579 5575 5571 5568 5565 5564 5563 5564
5683 5682 5679 5677 5674 5670 5667 5665 5661 5658 5656 5653 5651 5650 5647 5645 5643 5638 5632 5626 5625 5624 5622 5620 5617 5612 5607 5602 5596 5593 5592 5589 5584 5579 5575 5572 5568 5565 5563 5561 5559 5558 5560
5670 5668 5666 5663 5661 5659 5656 5653 5650 5648 5645 5642 5640 5639 5638 5636 5633 5631 5626 5620 5618 5616 5616 5616 5613 5608 5602 5597 5592 5589 5584 5578 5575 5571 5568 5566 5564 5562 5560 5558 5556 5554 5555
5656 5654 5651 5649 5646 5644 5642 5639 5637 5634 5631 5630 5628 5627 5627 5626 5623 5620 5616 5612 5609 5606 5608 5608 5605 5600 5594 5589 5586 5582 5576 5571 5568 5566 5565 5564 5562 5559 5555 5552 5551 5549 5549
5640 5637 5635 5632 5630 5628 5626 5624 5621 5619 5617 5615 5613 5612 5613 5612 5610 5608 5605 5603 5599 5596 5596 5596 5593 5589 5584 5581 5579 5574 5570 5568 5565 5563 5562 5560 5556 5552 5549 5547 5546 5545 5544
5625 5622 5619 5617 5614 5612 5611 5608 5606 5604 5601 5598 5597 5596 5595 5596 5596 5592 5588 5588 5587 5585 5582 5581 5581 5579 5576 5574 5571 5568 5564 5560 5557 5556 5554 5552 5550 5547 5545 5542 5540 5539 5539
5610 5607 5604 5601 5599 5597 5595 5595 5593 5589 5587 5584 5580 5577 5578 5577 5576 5575 5573 5571 5569 5566 5563 5567 5570 5570 5569 5568 5565 5562 5558 5555 5553 5551 5548 5546 5545 5543 5541 5539 5536 5535 5536
5595 5593 5590 5587 5585 5582 5580 5578 5578 5578 5574 5570 5566 5563 5560 5559 5558 5557 5556 5555 5554 5549 5549 5555 5558 5559 5559 5557 5556 5554 5553 5551 5548 5545 5543 5542 5540 5538 5537 5535 5533 5532 5532
5581 5578 5575 5572 5569 5566 5563 5560 5558 5556 5557 5556 5553 5548 5544 5542 5541 5539 5537 5536 5539 5537 5537 5541 5544 5546 5546 5545 5545 5545 5545 5543 5540 5539 5538 5538 5536 5534 5533 5532 5531 5530 5530
5566 5563 5560 5556 5552 5549 5545 5542 5539 5536 5534 5534 5534 5532 5528 5526 5525 5523 5520 5519 5523 5525 5525 5526 5529 5531 5532 5533 5534 5535 5535 5535 5535 5534 5534 5533 5532 5530 5529 5529 5528 5526 5524
5550 5547 5544 5540 5535 5531 5527 5524 5521 5518 5516 5514 5513 5512 5511 5508 5510 5511 5507 5506 5508 5511 5513 5516 5518 5520 5522 5523 5524 5525 5527 5528 5529 5529 5529 5529 5528 5527 5526 5525 5524 5524 5523
5534 5530 5526 5521 5517 5512 5509 5505 5502 5499 5498 5497 5497 5495 5490 5491 5493 5495 5495 5496 5497 5500 5504 5507 5511 5513 5515 5517 5518 5520 5521 5524 5525 5525 5525 5525 5524 5523 5522 5521 5521 5520 5520
5517 5512 5508 5504 5500 5496 5492 5488 5485 5483 5483 5482 5483 5483 5480 5480 5481 5483 5485 5487 5490 5493 5497 5501 5505 5509 5512 5514 5515 5516 5518 5520 5521 5521 5521 5520 5520 5519 5518 5517 5516 5516 5516
5501 5497 5493 5488 5484 5480 5477 5474 5471 5470 5469 5469 5469 5471 5472 5473 5473 5474 5477 5481 5484 5488 5492 5496 5501 5505 5508 5511 5512 5514 5515 5516 5517 5517 5516 5516 5516 5515 5514 5514 5513 5513 5513
5486 5482 5478 5475 5471 5468 5465 5462 5460 5459 5458 5459 5459 5461 5462 5464 5466 5468 5471 5475 5479 5483 5487 5493 5497 5501 5504 5507 5508 5510 5510 5511 5511 5511 5511 5511 5511 5510 5510 5510 5510 5510 5510
5472 5468 5465 5461 5459 5456 5455 5453 5452 5451 5450 5451 5452 5453 5455 5458 5461 5464 5467 5471 5475 5479 5484 5488 5492 5496 5498 5501 5503 5504 5504 5504 5504 5504 5505 5505 5505 5506 5506 5506 5507 5507 5507
5459 5456 5453 5450 5448 5446 5445 5445 5444 5444 5444 5445 5446 5448 5451 5454 5457 5459 5463 5467 5471 5475 5480 5483 5487 5490 5493 5495 5496 5497 5498 5498 5498 5498 5498 5500 5501 5502 5502 5503 5504 5504 5505